Regional Weather Roundup
Issued by NWS Boston, MA

Current Version | Previous Version | Text Only | Print | Product List | Glossary Off
Versions: 1 2 3 4 5 6 7 8 9 10 11 12 13 14 15 16 17 18 19 20 21 22 23 24 25 26 27
000 ASUS41 KBOX 291310 RWRBOX REGIONAL WEATHER ROUNDUP NATIONAL WEATHER SERVICE TAUNTON MA 900 AM EDT SUN MAY 29 2016 NOTE: "FAIR" INDICATES FEW OR NO CLOUDS BELOW 12,000 FEET WITH NO SIGNIFICANT WEATHER AND/OR OBSTRUCTIONS TO VISIBILITY. THE FOLLOWING OBSERVATION LOCATIONS DO NOT REPORT PRESENT WEATHER...PROVINCETOWN... SMITHFIELD...BLOCK ISLAND...KEENE...AND OXFORD. MAZALL-291400- EASTERN MASSACHUSETTS CITY SKY/WX TMP DP RH WIND PRES REMARKS BOSTON NOT AVBL BEVERLY CLOUDY 56 53 90 NE10G18 30.21R FOG LAWRENCE CLOUDY 59 54 83 NE12 30.23R BEDFORD CLOUDY 60 56 86 NE10 30.20R BLUE HILL N/A 58 55 90 N9 30.19S NORWOOD CLOUDY 61 56 83 NE8 30.20R MARSHFIELD CLOUDY 59 55 88 NW12G17 30.18S FOG PLYMOUTH CLOUDY 61 57 87 NW9 30.19R TAUNTON CLOUDY 65 57 75 VRB5 30.18R NEW BEDFORD MOSUNNY 70 61 73 N5 30.17R $$ MAZALL-291400- CAPE COD AND THE ISLANDS CITY SKY/WX TMP DP RH WIND PRES REMARKS FALMOUTH SUNNY 70 59 68 CALM 30.17R HYANNIS PTSUNNY 61 56 83 NW12G22 30.16R CHATHAM SUNNY 66 58 75 NW8 30.17S PROVINCETOWN SUNNY 61 56 83 N10 30.17R NANTUCKET SUNNY 66 59 78 W14 30.17S MARTHAS VNYRD SUNNY 71 60 68 S6 30.17R $$ MAZALL-291400- CENTRAL AND WESTERN MASSACHUSETTS CITY SKY/WX TMP DP RH WIND PRES REMARKS WORCESTER CLOUDY 62 60 93 E8 30.20S FOG FITCHBURG CLOUDY 64 59 83 N7 30.21R HAZE ORANGE CLOUDY 68 62 81 E5 30.18S SPRINGFIELD MOSUNNY 75 67 76 E8 30.14S WESTFIELD SUNNY 77 64 64 VRB5 30.15S NORTH ADAMS CLOUDY 76 65 68 VRB5 30.14S PITTSFIELD MOSUNNY 75 66 73 NE5 30.15F $$ RIZALL-291400- RHODE ISLAND CITY SKY/WX TMP DP RH WIND PRES REMARKS PROVIDENCE MOSUNNY 72 63 73 NE8 30.17S NEWPORT SUNNY 72 57 59 N5 30.17R BLOCK ISLAND SUNNY 67 59 75 SW7 30.18S SMITHFIELD CLOUDY N/A N/A N/A NE8 30.19R WESTERLY SUNNY 72 57 59 SE6 30.17S $$ CTZALL-291400- CONNECTICUT CITY SKY/WX TMP DP RH WIND PRES REMARKS BRADLEY INTL PTSUNNY 76 63 64 E6 30.14S HARTFORD MOSUNNY 78 64 61 SE5 30.14R BRIDGEPORT SUNNY 72 56 57 SW7 30.14S DANBURY SUNNY 77 66 68 W7 30.15S GROTON SUNNY 69 60 73 S5 30.16R NEW HAVEN SUNNY 70 56 61 S7 30.15S CHESTER FAIR 73 59 60 CALM 30.16S MERIDEN SUNNY 75 59 57 S5 30.14S WILLIMANTIC SUNNY 76 63 64 SE6 30.16S OXFORD PTSUNNY 75 64 69 MISG 30.17R $$ MEZ002-015-021-024-NHZ003-005-008-011-012-014-VTZ005-008-291400- NORTHERN NEW ENGLAND CITY SKY/WX TMP DP RH WIND PRES REMARKS PORTLAND ME CLOUDY 56 50 80 E14 30.28R BANGOR ME CLOUDY 60 48 64 S3 30.30R CONCORD NH CLOUDY 66 56 70 NE8 30.22R MANCHESTER NH CLOUDY 62 55 77 E9 30.20S NASHUA NH CLOUDY 60 57 89 NE7 30.22S PORTSMOUTH NH CLOUDY 55 53 92 NE10 30.23R FOG JAFFREY NH CLOUDY 63 61 93 VRB5 30.21S FOG KEENE NH CLOUDY 68 63 83 NE7 30.20R BURLINGTON VT FAIR 79 64 60 S6 30.09S MT. WASHINGTON PTSUNNY 57 52 82 SW23 N/A $$ NYZ052-076-291400- EASTERN NEW YORK CITY SKY/WX TMP DP RH WIND PRES REMARKS ALBANY PTSUNNY 77 67 71 S8 30.11S NEW YORK CITY MOSUNNY 80 62 54 S8 30.13F $$ ANZALL-291400- MARINE OBSERVATIONS STATION/POSITION TIME TEMP WIND PRES VSBY WAVE AIR SEA DIR/SP/G HT/PER (UTC) (F) (DEG/KT/KT) (MB) (MI) (FT/S) BOSTON BUOY 1250 56 57 10/ 14/ 16 1022.2R 2/ 4 BUZZARDS BAY 1200 59 230/ 13/ 14 1021.6R NANTUCKET SOUND 1250 61 58 280/ 4/ 4 1021.5R 1 MASS BAY-STELLWA 1204 54 56 N/A 0 2/ 3 ISLE OF SHOALS 1200 53 40/ 18/ 20 1022.9R S OF BLOCK IS 1225 57 N/A 3/ 8 $$ ......................KEY......................... SKY/WX - SKY CONDITION/PRESENT WEATHER TMP - TEMPERATURE IN FAHRENHEIT DWPT - DEWPOINT IN FAHRENHEIT RH - RELATIVE HUMIDITY IN PERCENT WIND - DIRECTION AND SPEED IN MPH PRES - MEAN SEA LEVEL PRESSURE IN INCHES OF HG WCI - WIND CHILL INDEX VSB - VISIBILITY IN MILES HX - HEAT INDEX TC - TEMPERATURE IN CELSIUS VRB - VARIABLE WIND DIRECTION N/A - NOT AVAILABLE

USA.gov is the U.S. government's official web portal to all federal, state and local government web resources and services.